STARLINK-31720, 59497

Orbit data source: Space-Track

STARLINK-31720, 59497 is a payload satellite owned by SpaceX/Seattle (US) in LEO that was launched on Sat, 13 Apr 2024 UTC via an FALCON 9 launch vehicle from the Air Force Eastern Test Range (AFETR). Payload-class satellites include a variety of spacecraft equipped with specific instruments for various scientific and technological missions. These include communications satellites like Starlink; space stations such as the ISS; scientific satellites like the Hubble; Earth observation satellites from companies like Planet Labs, Umbra, and HawkEye 360; GPS; miniature CubeSats for education and research; and military/defense satellites.

Loading next visibility...
Identifier
59497, 2024-071P
Orbit
LEO
Country
Flag of USUS
Related business
Manufacturer
SpaceX/Seattle
Mission
Operational Commercial Communications
Bus & Motor
STARLINK V2M, Unknown motor
Mass
730 kg wet, ~700 kg dry
Launch date (UTC)
2024-04-13 (2 years ago)
Launch vehicle
FALCON 9
Launch site
Air Force Eastern Test Range (AFETR)
Object type
Payload
Rocket body
Debris
Shape & HBR
Box + 2 Pan, 17.7 m
Radar Cross Section
33.884 m², Large (>1 m²)

Expand to show TLE details & history
Last TLE update: 2 days ago

TLE from 2 days ago
0 STARLINK-31720
1 59497U 24071P   26171.23811703 -.00002661  00000-0 -87209-4 0  9997
2 59497  43.0023 121.0769 0000720 239.8521 120.2260 15.27579563123888
Epoch: 2026-06-20T05:42Z
TLE epoch observation values (Epoch: 2026-06-20T05:42:53.311Z)
Latitude
0.00003°
Longitude
126.89919°
Altitude
483.075 km
Speed
7.626 km/s
True Right ascension
08h 04m 18s
True Declination
0° 00' 00"
Sunlit
Object was in daylight at epoch
Visualization orbit readout
Latitude
Unknown
Longitude
Unknown
Altitude
Unknown
Speed
Unknown
Apparent Right ascension
Unknown
Apparent Declination
Unknown
Sunlit
N/A
Visualization observer readout
Local Sidereal Time
21:32:55
Azimuth
Unknown
Elevation
Unknown
Doppler factor
Unknown
Orbital elements
Apogee altitude
485.489 km
Perigee altitude
484.501 km
Semi-major axis
6,863.132 km
Eccentricity
0.00007
Inclination
43.0023°
RAAN
121.0769°
Arg. of periapsis
239.8521°
True anomaly
120.23313°
Mean anomaly
120.226°
Eccentric anomaly
120.22956°
Mean motion
3.81733 °/min
Orbital period
94.31 mins
BSTAR
-0.000087209
Loading maneuver chart data...
Computing Atmospheric mass density...
Loading historical data...
Loading historical data...
Loading historical data...
Loading historical data...
Loading historical data...
Loading historical data...
Loading historical data...

Documentation

Showing up to 5 results
|